| time (UTC) | temp F | wind direction | speed MPH | gust MPH | rain 1hr in | rain 24hr in | rain mn in | humidity % | barometer mb |
| 20260507020007 | 56 | 223 | 3.0 | 9.0 | 0.00 | 0.00 | 0.00 | 77 | 1019.9 |
| 20260507015506 | 56 | 162 | 5.0 | 12.0 | 0.00 | 0.00 | 0.00 | 77 | 1019.9 |
| 20260507015006 | 56 | 155 | 5.0 | 12.0 | 0.00 | 0.00 | 0.00 | 76 | 1020.0 |
| 20260507014507 | 56 | 204 | 4.0 | 9.0 | 0.00 | 0.00 | 0.00 | 76 | 1019.9 |
| 20260507014006 | 56 | 157 | 3.0 | 8.0 | 0.00 | 0.00 | 0.00 | 76 | 1019.9 |
| 20260507013505 | 56 | 76 | 4.0 | 9.0 | 0.00 | 0.00 | 0.00 | 76 | 1019.9 |
| 20260507013006 | 56 | 114 | 4.0 | 11.0 | 0.00 | 0.00 | 0.00 | 76 | 1019.9 |
| 20260507012006 | 56 | 166 | 6.0 | 10.0 | 0.00 | 0.00 | 0.00 | 75 | 1019.9 |
| 20260507011505 | 56 | 193 | 3.0 | 9.0 | 0.00 | 0.00 | 0.00 | 76 | 1019.8 |
| 20260507010505 | 56 | 141 | 4.0 | 9.0 | 0.00 | 0.00 | 0.00 | 76 | 1019.9 |
| 20260507010007 | 56 | 157 | 4.0 | 7.0 | 0.00 | 0.00 | 0.00 | 75 | 1020.0 |
| 20260507005504 | 57 | 157 | 4.0 | 7.0 | 0.00 | 0.00 | 0.00 | 75 | 1019.9 |
| 20260507005005 | 57 | 185 | 3.0 | 8.0 | 0.00 | 0.00 | 0.00 | 75 | 1020.0 |
| 20260507004507 | 57 | 76 | 3.0 | 8.0 | 0.00 | 0.00 | 0.00 | 76 | 1020.0 |
| 20260507003006 | 56 | 143 | 4.0 | 10.0 | 0.00 | 0.00 | 0.00 | 76 | 1020.1 |
| 20260507002505 | 57 | 124 | 3.0 | 10.0 | 0.00 | 0.00 | 0.00 | 76 | 1020.0 |
| 20260507002005 | 57 | 95 | 5.0 | 12.0 | 0.00 | 0.00 | 0.00 | 77 | 1020.0 |
| 20260507001506 | 57 | 122 | 3.0 | 12.0 | 0.00 | 0.00 | 0.00 | 77 | 1020.0 |
| 20260507001005 | 56 | 123 | 4.0 | 9.0 | 0.00 | 0.00 | 0.00 | 77 | 1020.0 |
| 20260507000506 | 56 | 213 | 4.0 | 8.0 | 0.00 | 0.00 | 0.00 | 76 | 1019.9 |
| 20260507000005 | 56 | 129 | 4.0 | 9.0 | 0.00 | 0.00 | 0.00 | 77 | 1019.9 |
| 20260506235505 | 56 | 178 | 3.0 | 12.0 | 0.00 | 0.00 | 0.00 | 77 | 1019.9 |
| 20260506235005 | 56 | 100 | 5.0 | 12.0 | 0.00 | 0.00 | 0.00 | 77 | 1019.9 |
| 20260506234505 | 56 | 143 | 4.0 | 8.0 | 0.00 | 0.00 | 0.00 | 77 | 1019.9 |
| 20260506234005 | 56 | 171 | 3.0 | 9.0 | 0.00 | 0.00 | 0.00 | 77 | 1020.0 |
| 20260506233505 | 56 | 115 | 6.0 | 9.0 | 0.00 | 0.00 | 0.00 | 76 | 1019.9 |
| 20260506233006 | 56 | 161 | 3.0 | 7.0 | 0.00 | 0.00 | 0.00 | 77 | 1019.9 |
| 20260506232505 | 57 | 113 | 3.0 | 8.0 | 0.00 | 0.00 | 0.00 | 77 | 1020.0 |
| 20260506232005 | 57 | 193 | 2.0 | 8.0 | 0.00 | 0.00 | 0.00 | 77 | 1020.0 |
| 20260506231006 | 57 | 145 | 2.0 | 11.0 | 0.00 | 0.00 | 0.00 | 76 | 1019.9 |
| 20260506230505 | 57 | 117 | 4.0 | 10.0 | 0.00 | 0.00 | 0.00 | 75 | 1019.9 |
| 20260506230006 | 57 | 28 | 4.0 | 9.0 | 0.00 | 0.00 | 0.00 | 75 | 1019.9 |
| 20260506225506 | 58 | 129 | 5.0 | 10.0 | 0.00 | 0.00 | 0.00 | 75 | 1020.0 |
| 20260506225005 | 57 | 135 | 3.0 | 10.0 | 0.00 | 0.00 | 0.00 | 76 | 1020.0 |
| 20260506224507 | 58 | 68 | 3.0 | 9.0 | 0.00 | 0.00 | 0.00 | 75 | 1020.1 |
| 20260506224005 | 58 | 117 | 4.0 | 11.0 | 0.00 | 0.00 | 0.00 | 77 | 1020.1 |
| 20260506223007 | 58 | 135 | 3.0 | 10.0 | 0.00 | 0.00 | 0.00 | 76 | 1020.1 |
| 20260506222506 | 57 | 129 | 4.0 | 11.0 | 0.00 | 0.00 | 0.00 | 76 | 1020.1 |
| 20260506222007 | 57 | 110 | 5.0 | 11.0 | 0.00 | 0.00 | 0.00 | 77 | 1020.1 |
| 20260506221506 | 57 | 143 | 5.0 | 10.0 | 0.00 | 0.00 | 0.00 | 77 | 1020.1 |
| 20260506221006 | 56 | 152 | 3.0 | 10.0 | 0.00 | 0.00 | 0.00 | 78 | 1020.1 |
| 20260506220505 | 56 | 156 | 4.0 | 10.0 | 0.00 | 0.00 | 0.00 | 79 | 1020.1 |
| 20260506215505 | 56 | 178 | 4.0 | 11.0 | 0.00 | 0.00 | 0.00 | 79 | 1020.2 |
| 20260506215006 | 56 | 132 | 5.0 | 11.0 | 0.00 | 0.00 | 0.00 | 79 | 1020.1 |
| 20260506214506 | 56 | 108 | 6.0 | 10.0 | 0.00 | 0.00 | 0.00 | 79 | 1020.1 |
| 20260506213505 | 55 | 148 | 4.0 | 9.0 | 0.00 | 0.00 | 0.00 | 80 | 1020.2 |
| 20260506212505 | 55 | 129 | 3.0 | 10.0 | 0.00 | 0.00 | 0.00 | 81 | 1020.2 |
| 20260506212007 | 55 | 155 | 4.0 | 10.0 | 0.00 | 0.00 | 0.00 | 81 | 1020.2 |
| 20260506211506 | 55 | 98 | 3.0 | 8.0 | 0.00 | 0.00 | 0.00 | 81 | 1020.3 |
| 20260506211006 | 54 | 163 | 5.0 | 8.0 | 0.00 | 0.00 | 0.00 | 82 | 1020.2 |
| 20260506210506 | 54 | 105 | 3.0 | 9.0 | 0.00 | 0.00 | 0.00 | 82 | 1020.2 |
| 20260506205505 | 54 | 135 | 6.0 | 10.0 | 0.00 | 0.00 | 0.00 | 82 | 1020.4 |
| 20260506205005 | 54 | 117 | 4.0 | 10.0 | 0.00 | 0.00 | 0.00 | 82 | 1020.2 |
| 20260506204506 | 55 | 123 | 5.0 | 10.0 | 0.00 | 0.00 | 0.00 | 81 | 1020.2 |
| 20260506204004 | 54 | 117 | 5.0 | 10.0 | 0.00 | 0.00 | 0.00 | 82 | 1020.1 |
| 20260506203506 | 54 | 140 | 3.0 | 7.0 | 0.00 | 0.00 | 0.00 | 83 | 1020.2 |
| 20260506203006 | 54 | 124 | 3.0 | 7.0 | 0.00 | 0.00 | 0.00 | 84 | 1020.2 |
| 20260506202506 | 54 | 127 | 2.0 | 8.0 | 0.00 | 0.00 | 0.00 | 83 | 1020.4 |
| 20260506202005 | 54 | 135 | 4.0 | 8.0 | 0.00 | 0.00 | 0.00 | 84 | 1020.4 |
| 20260506201505 | 54 | 114 | 3.0 | 6.0 | 0.00 | 0.00 | 0.00 | 85 | 1020.3 |
| 20260506201004 | 53 | 191 | 3.0 | 6.0 | 0.00 | 0.00 | 0.00 | 84 | 1020.4 |
| 20260506200505 | 53 | 130 | 2.0 | 6.0 | 0.00 | 0.00 | 0.00 | 85 | 1020.4 |
| 20260506200006 | 53 | 95 | 3.0 | 7.0 | 0.00 | 0.00 | 0.00 | 85 | 1020.3 |
| 20260506195505 | 53 | 148 | 3.0 | 8.0 | 0.00 | 0.00 | 0.00 | 85 | 1020.4 |
| 20260506195006 | 53 | 135 | 4.0 | 8.0 | 0.00 | 0.00 | 0.00 | 84 | 1020.3 |
| 20260506194005 | 53 | 152 | 2.0 | 6.0 | 0.00 | 0.00 | 0.00 | 85 | 1020.3 |
| 20260506193006 | 53 | 203 | 2.0 | 7.0 | 0.00 | 0.00 | 0.00 | 85 | 1020.1 |
| 20260506192505 | 53 | 135 | 2.0 | 7.0 | 0.00 | 0.00 | 0.00 | 85 | 1020.0 |
| 20260506192005 | 53 | 178 | 3.0 | 8.0 | 0.00 | 0.00 | 0.00 | 85 | 1020.0 |
| 20260506191006 | 53 | 131 | 3.0 | 10.0 | 0.00 | 0.00 | 0.00 | 85 | 1019.9 |
| 20260506190505 | 53 | 128 | 2.0 | 7.0 | 0.00 | 0.00 | 0.00 | 85 | 1019.8 |
| 20260506190006 | 53 | 276 | 3.0 | 8.0 | 0.00 | 0.00 | 0.00 | 85 | 1019.9 |
| 20260506185006 | 53 | 128 | 3.0 | 8.0 | 0.00 | 0.00 | 0.00 | 86 | 1019.8 |
| 20260506184505 | 53 | 148 | 3.0 | 10.0 | 0.00 | 0.00 | 0.00 | 86 | 1019.8 |
| 20260506183504 | 53 | 135 | 3.0 | 7.0 | 0.00 | 0.00 | 0.00 | 86 | 1019.7 |
| 20260506183006 | 53 | 141 | 3.0 | 8.0 | 0.00 | 0.00 | 0.00 | 86 | 1019.7 |
| 20260506182004 | 53 | 211 | 2.0 | 8.0 | 0.00 | 0.00 | 0.00 | 86 | 1019.6 |
| 20260506181505 | 53 | 139 | 2.0 | 8.0 | 0.00 | 0.00 | 0.00 | 87 | 1019.6 |
| 20260506181004 | 53 | 221 | 2.0 | 7.0 | 0.00 | 0.00 | 0.00 | 87 | 1019.5 |
| 20260506180505 | 53 | 318 | 3.0 | 8.0 | 0.00 | 0.00 | 0.00 | 88 | 1019.6 |
| 20260506180006 | 53 | 98 | 3.0 | 10.0 | 0.00 | 0.00 | 0.00 | 87 | 1019.7 |
| 20260506175505 | 53 | 197 | 2.0 | 7.0 | 0.00 | 0.00 | 0.00 | 88 | 1019.6 |
| 20260506175005 | 53 | 163 | 3.0 | 7.0 | 0.00 | 0.00 | 0.00 | 87 | 1019.6 |
| 20260506174506 | 53 | 193 | 3.0 | 7.0 | 0.00 | 0.00 | 0.00 | 88 | 1019.5 |
| 20260506174006 | 53 | 284 | 2.0 | 7.0 | 0.00 | 0.00 | 0.00 | 88 | 1019.5 |
| 20260506173505 | 52 | 178 | 2.0 | 6.0 | 0.00 | 0.00 | 0.00 | 87 | 1019.3 |
| 20260506173007 | 52 | 172 | 2.0 | 6.0 | 0.00 | 0.00 | 0.00 | 88 | 1019.3 |
| 20260506172506 | 52 | 291 | 2.0 | 7.0 | 0.00 | 0.00 | 0.00 | 88 | 1019.3 |
| 20260506171006 | 52 | 213 | 2.0 | 8.0 | 0.00 | 0.00 | 0.00 | 89 | 1019.2 |
| 20260506170505 | 52 | 163 | 3.0 | 8.0 | 0.00 | 0.00 | 0.00 | 88 | 1019.0 |
| 20260506170006 | 52 | 193 | 3.0 | 7.0 | 0.00 | 0.00 | 0.00 | 88 | 1019.1 |
| 20260506165505 | 52 | 124 | 3.0 | 8.0 | 0.00 | 0.00 | 0.00 | 88 | 1019.2 |
| 20260506165007 | 52 | 89 | 2.0 | 8.0 | 0.00 | 0.00 | 0.00 | 88 | 1019.2 |
| 20260506164505 | 52 | 105 | 3.0 | 7.0 | 0.00 | 0.00 | 0.00 | 88 | 1019.3 |
| 20260506164005 | 52 | 155 | 2.0 | 7.0 | 0.00 | 0.00 | 0.00 | 88 | 1019.2 |
| 20260506163504 | 52 | 135 | 2.0 | 7.0 | 0.00 | 0.00 | 0.00 | 88 | 1019.2 |
| 20260506163006 | 52 | 214 | 4.0 | 10.0 | 0.00 | 0.00 | 0.00 | 88 | 1019.2 |
| 20260506162505 | 52 | 155 | 4.0 | 10.0 | 0.00 | 0.00 | 0.00 | 87 | 1019.3 |
| 20260506162005 | 52 | 128 | 3.0 | 8.0 | 0.00 | 0.00 | 0.00 | 87 | 1019.2 |
| 20260506161505 | 52 | 178 | 3.0 | 6.0 | 0.00 | 0.00 | 0.00 | 87 | 1019.3 |
| 20260506161006 | 52 | 89 | 2.0 | 7.0 | 0.00 | 0.00 | 0.00 | 87 | 1019.3 |
| 20260506160505 | 52 | 135 | 3.0 | 7.0 | 0.00 | 0.00 | 0.00 | 88 | 1019.4 |
| 20260506155505 | 52 | 340 | 2.0 | 7.0 | 0.00 | 0.00 | 0.00 | 88 | 1019.5 |
| 20260506154506 | 52 | 163 | 2.0 | 6.0 | 0.00 | 0.00 | 0.00 | 88 | 1019.3 |
| 20260506153504 | 52 | 122 | 3.0 | 7.0 | 0.00 | 0.00 | 0.00 | 88 | 1019.2 |
| 20260506153006 | 52 | 131 | 3.0 | 8.0 | 0.00 | 0.00 | 0.00 | 87 | 1019.1 |
| 20260506152506 | 52 | 169 | 3.0 | 10.0 | 0.00 | 0.00 | 0.00 | 88 | 1019.0 |
| 20260506152005 | 52 | 129 | 4.0 | 10.0 | 0.00 | 0.00 | 0.00 | 88 | 1018.8 |
| 20260506151505 | 52 | 223 | 5.0 | 10.0 | 0.00 | 0.00 | 0.00 | 88 | 1018.9 |
| 20260506151005 | 52 | 152 | 2.0 | 9.0 | 0.00 | 0.00 | 0.00 | 88 | 1018.8 |
| 20260506150505 | 52 | 141 | 5.0 | 9.0 | 0.00 | 0.00 | 0.00 | 87 | 1018.6 |
| 20260506150006 | 52 | 195 | 3.0 | 9.0 | 0.00 | 0.00 | 0.00 | 87 | 1018.6 |
| 20260506145506 | 52 | 135 | 3.0 | 10.0 | 0.00 | 0.00 | 0.00 | 87 | 1018.6 |
| 20260506145005 | 52 | 189 | 3.0 | 10.0 | 0.00 | 0.00 | 0.00 | 87 | 1018.5 |
| 20260506144005 | 52 | 211 | 3.0 | 7.0 | 0.00 | 0.00 | 0.00 | 87 | 1018.5 |
| 20260506143505 | 52 | 108 | 4.0 | 8.0 | 0.00 | 0.00 | 0.00 | 87 | 1018.4 |
| 20260506143006 | 52 | 186 | 3.0 | 9.0 | 0.00 | 0.00 | 0.00 | 87 | 1018.4 |
| 20260506142505 | 52 | 107 | 3.0 | 9.0 | 0.00 | 0.00 | 0.00 | 87 | 1018.4 |
| 20260506142004 | 52 | 127 | 3.0 | 9.0 | 0.00 | 0.00 | 0.00 | 87 | 1018.5 |
| 20260506141504 | 52 | 241 | 3.0 | 8.0 | 0.00 | 0.00 | 0.00 | 87 | 1018.5 |
| 20260506140007 | 52 | 237 | 2.0 | 10.0 | 0.00 | 0.00 | 0.00 | 87 | 1018.8 |
| 20260506135505 | 52 | 89 | 3.0 | 10.0 | 0.00 | 0.00 | 0.00 | 87 | 1018.5 |
| 20260506134505 | 52 | 135 | 3.0 | 10.0 | 0.00 | 0.00 | 0.00 | 86 | 1018.4 |
| 20260506134005 | 52 | 145 | 4.0 | 10.0 | 0.00 | 0.00 | 0.00 | 86 | 1018.2 |
| 20260506133504 | 52 | 112 | 6.0 | 10.0 | 0.00 | 0.00 | 0.00 | 86 | 1018.2 |
| 20260506133004 | 52 | 158 | 5.0 | 10.0 | 0.00 | 0.00 | 0.00 | 86 | 1018.1 |
| 20260506132504 | 52 | 196 | 3.0 | 9.0 | 0.00 | 0.00 | 0.00 | 86 | 1017.9 |
| 20260506132006 | 52 | 117 | 4.0 | 11.0 | 0.00 | 0.00 | 0.00 | 86 | 1017.9 |
| 20260506131504 | 52 | 140 | 6.0 | 10.0 | 0.00 | 0.00 | 0.00 | 86 | 1017.9 |
| 20260506131006 | 52 | 117 | 5.0 | 10.0 | 0.00 | 0.00 | 0.00 | 86 | 1017.9 |
| 20260506130006 | 52 | 178 | 5.0 | 13.0 | 0.00 | 0.00 | 0.00 | 86 | 1018.0 |
| 20260506125504 | 52 | 132 | 4.0 | 13.0 | 0.00 | 0.00 | 0.00 | 86 | 1018.2 |
| 20260506125004 | 52 | 145 | 4.0 | 12.0 | 0.00 | 0.00 | 0.00 | 86 | 1018.1 |
| 20260506124506 | 52 | 124 | 3.0 | 12.0 | 0.00 | 0.00 | 0.00 | 86 | 1018.0 |
| 20260506124005 | 52 | 135 | 4.0 | 10.0 | 0.00 | 0.00 | 0.00 | 86 | 1018.0 |
| 20260506123505 | 52 | 125 | 4.0 | 10.0 | 0.00 | 0.00 | 0.00 | 86 | 1018.1 |
| 20260506123005 | 52 | 132 | 4.0 | 10.0 | 0.00 | 0.00 | 0.00 | 86 | 1018.1 |
| 20260506122505 | 52 | 135 | 3.0 | 8.0 | 0.00 | 0.00 | 0.00 | 86 | 1018.1 |
| 20260506121005 | 52 | 135 | 4.0 | 11.0 | 0.00 | 0.00 | 0.00 | 86 | 1018.0 |
| 20260506120504 | 52 | 135 | 4.0 | 11.0 | 0.00 | 0.00 | 0.00 | 86 | 1018.0 |
| 20260506120006 | 52 | 117 | 3.0 | 11.0 | 0.00 | 0.00 | 0.00 | 86 | 1017.8 |
| 20260506115504 | 52 | 98 | 2.0 | 9.0 | 0.00 | 0.00 | 0.00 | 86 | 1017.7 |
| 20260506115005 | 52 | 178 | 3.0 | 12.0 | 0.00 | 0.00 | 0.00 | 86 | 1017.7 |
| 20260506114505 | 52 | 132 | 4.0 | 12.0 | 0.00 | 0.00 | 0.00 | 86 | 1017.7 |
| 20260506114005 | 52 | 151 | 4.0 | 10.0 | 0.00 | 0.00 | 0.00 | 86 | 1017.6 |
| 20260506113006 | 52 | 121 | 3.0 | 9.0 | 0.00 | 0.00 | 0.00 | 86 | 1017.6 |
| 20260506112504 | 52 | 155 | 3.0 | 9.0 | 0.00 | 0.00 | 0.00 | 86 | 1017.5 |
| 20260506111505 | 52 | 122 | 2.0 | 11.0 | 0.00 | 0.00 | 0.00 | 86 | 1017.5 |
| 20260506111004 | 52 | 145 | 3.0 | 11.0 | 0.00 | 0.00 | 0.00 | 86 | 1017.6 |
| 20260506110504 | 52 | 138 | 3.0 | 8.0 | 0.00 | 0.00 | 0.00 | 86 | 1017.5 |
| 20260506110007 | 52 | 152 | 4.0 | 8.0 | 0.00 | 0.00 | 0.00 | 86 | 1017.4 |
| 20260506105003 | 52 | 112 | 4.0 | 10.0 | 0.00 | 0.00 | 0.00 | 86 | 1017.2 |
| 20260506103505 | 52 | 178 | 3.0 | 9.0 | 0.00 | 0.00 | 0.00 | 86 | 1017.0 |
| 20260506103004 | 52 | 206 | 2.0 | 8.0 | 0.00 | 0.00 | 0.00 | 86 | 1017.0 |
| 20260506102504 | 52 | 135 | 4.0 | 9.0 | 0.00 | 0.00 | 0.00 | 86 | 1016.9 |
| 20260506102006 | 52 | 157 | 5.0 | 9.0 | 0.00 | 0.00 | 0.00 | 86 | 1016.9 |
| 20260506101006 | 53 | 115 | 4.0 | 9.0 | 0.00 | 0.00 | 0.00 | 86 | 1016.7 |
| 20260506100506 | 53 | 89 | 3.0 | 7.0 | 0.00 | 0.00 | 0.00 | 85 | 1016.6 |
| 20260506100005 | 53 | 140 | 3.0 | 10.0 | 0.00 | 0.00 | 0.00 | 85 | 1016.6 |
| 20260506095500 | 53 | 117 | 5.0 | 11.0 | 0.00 | 0.00 | 0.00 | 85 | 1016.6 |
| 20260506095004 | 53 | 130 | 4.0 | 11.0 | 0.00 | 0.00 | 0.00 | 85 | 1016.5 |
| 20260506094504 | 53 | 135 | 4.0 | 9.0 | 0.00 | 0.00 | 0.00 | 85 | 1016.5 |
| 20260506094004 | 53 | 216 | 3.0 | 9.0 | 0.00 | 0.00 | 0.00 | 85 | 1016.5 |
| 20260506093504 | 53 | 131 | 3.0 | 10.0 | 0.00 | 0.00 | 0.00 | 85 | 1016.5 |
| 20260506093005 | 53 | 114 | 3.0 | 10.0 | 0.00 | 0.00 | 0.00 | 85 | 1016.4 |
| 20260506092501 | 53 | 163 | 3.0 | 8.0 | 0.00 | 0.00 | 0.00 | 85 | 1016.4 |
| 20260506092005 | 53 | 135 | 2.0 | 8.0 | 0.00 | 0.00 | 0.00 | 85 | 1016.3 |
| 20260506091504 | 53 | 126 | 3.0 | 7.0 | 0.00 | 0.00 | 0.00 | 85 | 1016.3 |
| 20260506091004 | 53 | 173 | 3.0 | 9.0 | 0.00 | 0.00 | 0.00 | 85 | 1016.3 |
| 20260506090503 | 53 | 157 | 4.0 | 9.0 | 0.00 | 0.00 | 0.00 | 85 | 1016.3 |
| 20260506090006 | 53 | 178 | 2.0 | 9.0 | 0.00 | 0.00 | 0.00 | 85 | 1016.3 |
| 20260506085505 | 53 | 197 | 4.0 | 9.0 | 0.00 | 0.00 | 0.00 | 84 | 1016.2 |
| 20260506085005 | 53 | 152 | 4.0 | 9.0 | 0.00 | 0.00 | 0.00 | 84 | 1016.2 |
| 20260506084506 | 53 | 193 | 2.0 | 9.0 | 0.00 | 0.00 | 0.00 | 84 | 1016.2 |
| 20260506084005 | 54 | 203 | 3.0 | 9.0 | 0.00 | 0.00 | 0.00 | 84 | 1016.2 |
| 20260506083504 | 54 | 110 | 3.0 | 12.0 | 0.00 | 0.00 | 0.00 | 84 | 1016.2 |
| 20260506083006 | 54 | 161 | 5.0 | 12.0 | 0.00 | 0.00 | 0.00 | 84 | 1016.1 |
| 20260506082505 | 54 | 117 | 3.0 | 11.0 | 0.00 | 0.00 | 0.00 | 84 | 1016.1 |
| 20260506082006 | 54 | 128 | 5.0 | 11.0 | 0.00 | 0.00 | 0.00 | 84 | 1016.1 |
| 20260506081506 | 54 | 127 | 3.0 | 9.0 | 0.00 | 0.00 | 0.00 | 84 | 1016.0 |
| 20260506081006 | 54 | 143 | 3.0 | 7.0 | 0.00 | 0.00 | 0.00 | 84 | 1016.0 |
| 20260506080504 | 54 | 161 | 4.0 | 7.0 | 0.00 | 0.00 | 0.00 | 84 | 1016.0 |
| 20260506072506 | 55 | 223 | 2.0 | 8.0 | 0.00 | 0.00 | 0.00 | 83 | 1015.7 |
| 20260506072005 | 55 | 220 | 4.0 | 9.0 | 0.00 | 0.00 | 0.00 | 83 | 1015.7 |
| 20260506071005 | 55 | 124 | 4.0 | 8.0 | 0.00 | 0.00 | 0.00 | 82 | 1015.7 |
| 20260506070505 | 55 | 124 | 4.0 | 8.0 | 0.00 | 0.00 | 0.00 | 82 | 1015.6 |
| 20260506061506 | 56 | 140 | 3.0 | 8.0 | 0.00 | 0.00 | 0.00 | 81 | 1015.5 |
| 20260506060505 | 56 | 100 | 4.0 | 12.0 | 0.00 | 0.00 | 0.00 | 81 | 1015.5 |
| 20260506050506 | 57 | 142 | 4.0 | 9.0 | 0.00 | 0.00 | 0.00 | 79 | 1015.3 |
| 20260506044507 | 57 | 137 | 3.0 | 6.0 | 0.00 | 0.00 | 0.00 | 79 | 1015.2 |
| 20260506044009 | 57 | 178 | 2.0 | 7.0 | 0.00 | 0.00 | 0.00 | 78 | 1015.0 |
| 20260506043505 | 57 | 140 | 2.0 | 5.0 | 0.00 | 0.00 | 0.00 | 79 | 1015.0 |
| 20260506043007 | 57 | 122 | 2.0 | 9.0 | 0.00 | 0.00 | 0.00 | 79 | 1014.9 |
| 20260506042505 | 57 | 145 | 154.0 | 655.0 | 3.31 | 0.00 | 0.00 | 78 | |
| 20260506041506 | 58 | 164 | 3.0 | 12.0 | 0.00 | 0.00 | 0.00 | 78 | 1014.8 |
| 20260506041006 | 58 | 119 | 5.0 | 12.0 | 0.00 | 0.00 | 0.00 | 78 | 1014.8 |
| 20260506040505 | 58 | 167 | 3.0 | 7.0 | 0.00 | 0.00 | 0.00 | 78 | 1014.7 |
| 20260506035007 | 58 | 114 | 3.0 | 8.0 | 0.00 | 0.00 | 0.00 | 77 | 1014.5 |
| 20260506034506 | 58 | 142 | 3.0 | 8.0 | 0.00 | 0.00 | 0.00 | 78 | 1014.4 |
| 20260506034005 | 58 | 161 | 4.0 | 7.0 | 0.00 | 0.00 | 0.00 | 78 | 1014.5 |
| 20260506033505 | 58 | 145 | 3.0 | 8.0 | 0.00 | 0.00 | 0.00 | 78 | 1014.5 |
| 20260506033008 | 58 | 234 | 4.0 | 8.0 | 0.00 | 0.00 | 0.00 | 78 | 1014.4 |
| 20260506032506 | 58 | 165 | 4.0 | 9.0 | 0.00 | 0.00 | 0.00 | 78 | 1014.3 |
| 20260506032007 | 58 | 130 | 4.0 | 12.0 | 0.00 | 0.00 | 0.00 | 78 | 1014.3 |
| 20260506031506 | 58 | 125 | 4.0 | 12.0 | 0.00 | 0.00 | 0.00 | 78 | 1014.2 |
| 20260506031006 | 58 | 56 | 4.0 | 13.0 | 0.00 | 0.00 | 0.00 | 78 | 1014.2 |
| 20260506030505 | 58 | 143 | 5.0 | 13.0 | 0.00 | 0.00 | 0.00 | 78 | 1014.2 |
| 20260506030006 | 58 | 128 | 4.0 | 10.0 | 0.00 | 0.00 | 0.00 | 79 | 1014.1 |
| 20260506025004 | 58 | 140 | 4.0 | 13.0 | 0.00 | 0.00 | 0.00 | 78 | 1014.1 |
| 20260506024505 | 58 | 148 | 4.0 | 9.0 | 0.00 | 0.00 | 0.00 | 78 | 1014.2 |
| 20260506023504 | 58 | 124 | 4.0 | 9.0 | 0.00 | 0.00 | 0.00 | 78 | 1014.1 |
| 20260506023005 | 58 | 137 | 4.0 | 9.0 | 0.00 | 0.00 | 0.00 | 78 | 1014.2 |
| 20260506022005 | 59 | 223 | 3.0 | 10.0 | 0.00 | 0.00 | 0.00 | 78 | 1014.2 |
| 20260506021506 | 59 | 139 | 4.0 | 8.0 | 0.00 | 0.00 | 0.00 | 78 | 1014.2 |